[[[{"header":{"parameterUnit":"kt","parameterCategory":2,"dx":1,"dy":1,"la1":30.253999710083008,"la2":30.299108505249023,"lo1":-89.0895004272461,"lo2":-89.04439544677734,"nx":28,"ny":28,"refTime":"2022-10-05T21:00:00:Z","depth":0,"parameterNumber":1,"parameterNumberName":"U-component_of_WINDS"},"data":[1.5468,1.5515,1.559,1.5676,1.5757,1.5828,1.5877,1.5947,1.6021,1.6112,1.6176,1.6254,1.6355,1.6447,1.6518,1.6551,1.6574,1.6537,1.658,1.6685,1.6704,1.6722,1.6717,1.6541,1.6541,1.646,1.6459,1.6459,1.5538,1.562,1.5688,1.5805,1.5863,1.5945,1.6043,1.6085,1.6145,1.6237,1.6305,1.6389,1.6464,1.658,1.6664,1.6684,1.6725,1.67,1.6698,1.6712,1.6828,1.6822,1.6666,1.6666,1.6666,1.6666,1.6666,1.6666,1.5685,1.571,1.5826,1.5901,1.5979,1.6056,1.6091,1.6188,1.6254,1.6353,1.6428,1.6496,1.66,1.6737,1.6799,1.6852,1.6892,1.6887,1.6886,1.6881,1.6867,1.6971,1.687,1.6871,1.6872,1.6872,1.6873,0,1.5816,1.5877,1.5949,1.6041,1.61,1.6178,1.6262,1.6286,1.6439,1.6486,1.6561,1.6615,1.6722,1.6797,1.6891,1.6959,1.7044,1.7061,1.7058,1.7021,1.6976,1.6998,1.7181,1.7063,1.7065,1.7066,1.7067,1.7068,1.5967,1.5988,1.6145,1.6185,1.625,1.6311,1.6362,1.6497,1.6544,1.6666,1.6679,1.6758,1.6828,1.6931,1.7039,1.7117,1.7159,1.7105,1.717,1.7135,1.7155,1.7151,1.7153,1.7088,1.7086,1.7084,1.7082,0,1.6045,1.6169,1.6226,1.6379,1.6418,1.6432,1.6562,1.6591,1.6682,1.6733,1.6753,1.6893,1.6962,1.7081,1.7182,1.7241,1.7259,1.7299,1.7225,1.7238,1.72,1.7201,1.7063,1.7051,1.7237,1.7235,1.7234,0,1.6222,1.6243,1.6427,1.6453,1.6482,1.6618,1.664,1.6721,1.6816,1.6858,1.6977,1.7013,1.716,1.7213,1.73,1.7337,1.7357,1.7403,1.7425,1.7391,1.7384,1.7413,1.742,1.7478,1.7479,1.7479,1.748,0,1.6328,1.6453,1.6497,1.6545,1.671,1.6726,1.6795,1.6902,1.695,1.7032,1.7064,1.7147,1.7192,1.7254,1.7365,1.7405,1.7414,1.7491,1.746,1.7457,1.7453,1.7451,1.7303,1.7481,1.7481,1.7481,1.7481,0,1.6489,1.6573,1.6619,1.6759,1.6786,1.6814,1.6908,1.696,1.7064,1.7122,1.7187,1.7279,1.7324,1.7392,1.7453,1.7473,1.7509,1.7559,1.7559,1.7567,1.7639,1.7536,1.7385,1.7372,1.7578,1.7579,1.758,0,1.6575,1.6656,1.6774,1.6813,1.6867,1.7,1.7033,1.7122,1.7203,1.7258,1.7347,1.7407,1.7484,1.7518,1.7534,1.7626,1.76,1.7633,1.7703,1.7704,1.767,1.7534,1.748,1.7406,1.7592,1.7591,1.759,0,1.6658,1.6862,1.6861,1.6922,1.7064,1.7109,1.7147,1.7239,1.7269,1.7356,1.7389,1.7478,1.7539,1.7595,1.7678,1.7687,1.7621,1.775,1.7755,1.7721,1.7609,1.7558,1.7545,1.7675,1.7674,1.7673,1.7599,0,1.6869,1.6926,1.693,1.7059,1.7114,1.7145,1.7277,1.7316,1.7394,1.7479,1.753,1.7633,1.7722,1.774,1.7814,1.7798,1.7819,1.7882,1.7954,1.7865,1.7843,1.7835,1.7976,1.7979,1.7981,1.7983,0,0,1.6919,1.7005,1.7134,1.7178,1.7232,1.7369,1.7391,1.7459,1.759,1.7623,1.7666,1.7803,1.7883,1.7931,1.7913,1.7949,1.7957,1.7983,1.7907,1.7898,1.789,1.7865,1.7854,1.7987,1.7988,1.7989,1.799,0,1.7024,1.7111,1.7134,1.7211,1.733,1.7421,1.7426,1.7567,1.7622,1.7675,1.7784,1.783,1.7935,1.8006,1.8055,1.7982,1.8059,1.8,1.7917,1.7927,1.7915,1.7904,1.7876,1.7865,1.7996,1.7995,1.7995,0,1.7128,1.7234,1.726,1.7391,1.747,1.7521,1.7631,1.768,1.7719,1.7861,1.7911,1.7984,1.8089,1.8119,1.8136,1.8175,1.8144,1.8177,1.8165,1.8168,1.8184,1.8169,1.8156,1.833,1.833,1.8331,0,0,1.7199,1.7254,1.7409,1.7424,1.7466,1.7601,1.7641,1.7723,1.7818,1.7855,1.7951,1.8037,1.8101,1.8138,1.8204,1.8218,1.8249,1.8213,1.8197,1.8184,1.8179,1.8191,1.8177,1.8333,1.8333,1.8334,0,0,1.7233,1.7415,1.7477,1.7511,1.76,1.7751,1.7753,1.7832,1.7905,1.7916,1.8052,1.8081,1.811,1.8177,1.8195,1.8231,1.8301,1.8299,1.8186,1.8168,1.8153,1.8134,1.8319,0,0,0,0,0,1.7408,1.7393,1.7448,1.7474,1.7639,1.7721,1.7743,1.7857,1.7905,1.7904,1.7997,1.8078,1.8215,1.8235,1.8256,1.8233,1.8365,1.8359,1.8354,1.8213,1.8193,1.8175,0,0,0,0,0,0,1.7419,1.745,1.7449,1.7597,1.7636,1.7723,1.7828,1.7859,1.7908,1.7923,1.8058,1.8083,1.8179,1.8232,1.8249,1.8225,1.8313,1.8363,1.8358,1.8354,1.8206,1.8189,1.8175,0,0,0,0,0,1.7428,1.7453,1.7689,1.7598,1.7632,1.7781,1.783,1.7857,1.7896,1.804,1.8067,1.7979,1.8175,1.8197,1.8243,1.8214,1.8302,1.8308,1.836,1.8356,1.8353,1.8198,0,0,0,0,0,0,1.7435,1.7477,1.7698,1.7712,1.7613,1.7779,1.7809,1.7854,1.8012,1.8039,1.7967,1.7977,1.8172,1.819,1.8207,1.8204,1.8293,1.8299,1.8303,1.8357,1.8354,1.8351,0,0,0,0,0,0,1.7464,1.7488,1.7705,1.7718,1.7734,1.7775,1.7802,1.7856,1.8012,1.793,1.7944,1.7969,1.8146,1.8185,1.8198,1.8278,1.8286,1.8292,1.8296,1.8299,1.8354,1.8352,0,0,0,0,0,0,1.7476,1.7497,1.7715,1.7727,1.7742,1.7911,1.7825,1.7986,1.8026,1.7921,1.8033,1.8036,1.8138,1.8154,1.8192,1.8265,1.8275,1.8286,1.829,1.8293,1.8295,0,0,0,0,0,0,0,1.7486,1.7323,1.7614,1.7736,1.7749,1.7844,1.7848,1.7852,1.8027,1.803,1.8032,1.8035,1.8253,1.8259,1.8266,1.8255,0,0,1.8286,1.8289,0,0,0,0,0,0,0,0,1.7317,1.7321,1.7614,1.7617,1.762,1.7844,1.7848,1.7851,1.8027,1.803,1.8032,1.8034,1.8255,1.826,1.8265,0,0,0,0,0,0,0,0,0,0,0,0,0,0,0,1.7614,1.7617,0,1.7845,1.7848,1.785,1.8028,1.803,1.8031,1.8033,1.8256,1.826,1.8265,0,0,0,0,0,0,0,0,0,0,0,0,0,0,0,0,0,0,0,0,0,0,0,0,0,0,0,0,0,0,0,0,0,0,0,0,0,0,0,0,0,0,0,0,0,0,0,0,0,0,0,0,0,0,0,0,0,0,0,0,0,0,0,0,0,0,0,0,0]}],[{"header":{"parameterUnit":"kt","parameterCategory":2,"dx":1,"dy":1,"la1":30.253999710083008,"la2":30.299108505249023,"lo1":-89.0895004272461,"lo2":-89.04439544677734,"nx":28,"ny":28,"refTime":"2022-10-05T21:00:00:Z","depth":0,"parameterNumber":2,"parameterNumberName":"V-component_of_WINDS"},"data":[-0.1678,-0.1909,-0.2058,-0.2394,-0.2585,-0.2844,-0.2985,-0.3184,-0.3383,-0.3714,-0.3933,-0.4114,-0.4379,-0.4682,-0.4932,-0.5009,-0.5106,-0.5076,-0.5173,-0.5158,-0.5167,-0.5176,-0.5128,-0.5094,-0.5094,-0.5167,-0.5168,-0.5168,-0.1651,-0.184,-0.206,-0.2377,-0.2569,-0.2686,-0.295,-0.3106,-0.3336,-0.3583,-0.3807,-0.4114,-0.4379,-0.4662,-0.4945,-0.5064,-0.514,-0.513,-0.5126,-0.5167,-0.5156,-0.5104,-0.5064,-0.5064,-0.5064,-0.5064,-0.5064,-0.5064,-0.1643,-0.1776,-0.2054,-0.2297,-0.2498,-0.2711,-0.2867,-0.3084,-0.3307,-0.3615,-0.3757,-0.4024,-0.4307,-0.4727,-0.4908,-0.5125,-0.5166,-0.5207,-0.5218,-0.5225,-0.521,-0.5086,-0.5181,-0.5182,-0.5183,-0.5183,-0.5184,0,-0.1685,-0.1801,-0.2024,-0.2291,-0.2477,-0.2702,-0.2935,-0.3036,-0.3344,-0.3517,-0.3781,-0.3961,-0.4319,-0.4591,-0.4893,-0.5077,-0.5227,-0.5259,-0.5289,-0.5223,-0.5124,-0.5182,-0.5159,-0.5257,-0.5258,-0.5259,-0.5259,-0.526,-0.1691,-0.1828,-0.2194,-0.2331,-0.2495,-0.2713,-0.2876,-0.3137,-0.33,-0.3629,-0.3739,-0.4012,-0.4246,-0.4651,-0.4915,-0.5186,-0.5263,-0.5282,-0.5306,-0.5235,-0.5268,-0.5258,-0.5275,-0.5274,-0.5272,-0.527,-0.5269,0,-0.168,-0.1927,-0.2191,-0.2544,-0.2637,-0.277,-0.3076,-0.3224,-0.3422,-0.3655,-0.3725,-0.4039,-0.4299,-0.4562,-0.4914,-0.5044,-0.5278,-0.5344,-0.5181,-0.521,-0.5256,-0.5249,-0.5358,-0.5388,-0.5423,-0.5422,-0.5422,0,-0.1784,-0.1956,-0.2317,-0.2457,-0.2658,-0.2916,-0.3111,-0.3301,-0.3548,-0.3734,-0.3942,-0.4113,-0.4423,-0.4634,-0.4827,-0.5065,-0.5131,-0.5246,-0.5296,-0.5229,-0.5215,-0.5326,-0.5328,-0.54,-0.5399,-0.5398,-0.5398,0,-0.1743,-0.2139,-0.2367,-0.2499,-0.2896,-0.2999,-0.317,-0.3449,-0.3609,-0.3858,-0.3966,-0.4239,-0.439,-0.4601,-0.4845,-0.4851,-0.5142,-0.5201,-0.5261,-0.5255,-0.5315,-0.5308,-0.5335,-0.5397,-0.5397,-0.5396,-0.5396,0,-0.1868,-0.2106,-0.24,-0.2736,-0.2831,-0.2983,-0.3267,-0.3459,-0.3739,-0.3869,-0.4069,-0.4242,-0.4469,-0.4508,-0.4828,-0.4766,-0.4904,-0.5036,-0.5045,-0.5085,-0.5122,-0.5105,-0.5101,-0.5113,-0.5116,-0.5114,-0.5112,0,-0.1754,-0.2116,-0.234,-0.2616,-0.2821,-0.304,-0.3216,-0.3457,-0.3645,-0.3851,-0.4062,-0.4296,-0.4381,-0.4492,-0.4615,-0.4845,-0.4925,-0.4841,-0.5145,-0.5152,-0.5063,-0.5062,-0.4997,-0.5072,-0.5086,-0.5089,-0.5091,0,-0.1698,-0.2175,-0.2208,-0.2371,-0.2728,-0.2902,-0.3102,-0.339,-0.3514,-0.3763,-0.3943,-0.4278,-0.4358,-0.4539,-0.471,-0.4824,-0.4878,-0.4896,-0.4907,-0.4885,-0.5094,-0.5031,-0.5042,-0.4969,-0.4973,-0.4976,-0.507,0,-0.1832,-0.2047,-0.2147,-0.2495,-0.267,-0.2857,-0.3133,-0.3282,-0.3426,-0.3621,-0.3889,-0.4162,-0.4461,-0.4543,-0.4688,-0.4864,-0.4878,-0.496,-0.5022,-0.5017,-0.5056,-0.5071,-0.4941,-0.4945,-0.4948,-0.495,0,0,-0.1663,-0.1976,-0.2218,-0.242,-0.2583,-0.281,-0.2986,-0.3174,-0.3546,-0.3656,-0.3691,-0.4203,-0.4424,-0.4722,-0.4742,-0.4863,-0.4922,-0.4913,-0.5016,-0.5022,-0.5029,-0.5065,-0.5076,-0.4955,-0.4956,-0.4957,-0.4958,0,-0.177,-0.1978,-0.2147,-0.235,-0.2658,-0.2856,-0.2895,-0.3244,-0.3378,-0.3641,-0.3831,-0.4026,-0.4429,-0.4639,-0.4798,-0.4883,-0.5019,-0.4953,-0.4904,-0.5036,-0.5037,-0.5041,-0.5075,-0.5083,-0.4965,-0.4965,-0.4965,0,-0.1766,-0.2018,-0.2128,-0.2506,-0.2712,-0.2919,-0.3048,-0.3261,-0.3419,-0.3666,-0.3924,-0.4113,-0.4419,-0.4662,-0.4783,-0.482,-0.509,-0.5055,-0.5044,-0.5066,-0.5207,-0.5209,-0.5211,-0.5185,-0.5185,-0.5185,0,0,-0.1821,-0.2021,-0.2378,-0.255,-0.2666,-0.2963,-0.3102,-0.3261,-0.3526,-0.3631,-0.3878,-0.4133,-0.4372,-0.4523,-0.4762,-0.499,-0.5077,-0.507,-0.506,-0.505,-0.5065,-0.5204,-0.5206,-0.5183,-0.5183,-0.5183,0,0,-0.1851,-0.2267,-0.2365,-0.2599,-0.2841,-0.3208,-0.3306,-0.3437,-0.3679,-0.3689,-0.3975,-0.4056,-0.4289,-0.447,-0.4416,-0.479,-0.4845,-0.4864,-0.4664,-0.4655,-0.4645,-0.4598,-0.4593,0,0,0,0,0,-0.2101,-0.2215,-0.2299,-0.2379,-0.2863,-0.3159,-0.3224,-0.3459,-0.3491,-0.3563,-0.3791,-0.3927,-0.45,-0.4459,-0.4537,-0.4597,-0.5163,-0.5166,-0.517,-0.4967,-0.4954,-0.4944,0,0,0,0,0,0,-0.2135,-0.2232,-0.2297,-0.2663,-0.2775,-0.3157,-0.3265,-0.3333,-0.349,-0.3511,-0.3878,-0.3939,-0.4149,-0.4435,-0.4502,-0.4553,-0.4571,-0.5164,-0.5167,-0.517,-0.4963,-0.4952,-0.4944,0,0,0,0,0,-0.2163,-0.2241,-0.2953,-0.2664,-0.2761,-0.31,-0.3263,-0.332,-0.3447,-0.3801,-0.3865,-0.3609,-0.4144,-0.4218,-0.4476,-0.4517,-0.4526,-0.455,-0.5166,-0.5169,-0.5171,-0.4958,0,0,0,0,0,0,-0.2184,-0.2299,-0.2978,-0.3016,-0.2638,-0.3084,-0.3161,-0.3308,-0.3732,-0.3795,-0.3545,-0.3557,-0.4142,-0.4199,-0.4255,-0.449,-0.4489,-0.4514,-0.4529,-0.5168,-0.517,-0.5172,0,0,0,0,0,0,-0.2258,-0.2329,-0.2998,-0.2952,-0.2987,-0.3067,-0.3136,-0.3391,-0.3734,-0.3453,-0.3476,-0.3545,-0.4061,-0.4187,-0.4231,-0.462,-0.4461,-0.4485,-0.4501,-0.4511,-0.517,-0.5171,0,0,0,0,0,0,-0.2293,-0.2354,-0.2943,-0.297,-0.3002,-0.3451,-0.3298,-0.3782,-0.3686,-0.3431,-0.3685,-0.3684,-0.4045,-0.4095,-0.4213,-0.4583,-0.4611,-0.4462,-0.4478,-0.4489,-0.4497,0,0,0,0,0,0,0,-0.2321,-0.1852,-0.2749,-0.2986,-0.3013,-0.3371,-0.3382,-0.3393,-0.3686,-0.3685,-0.3685,-0.3684,-0.4326,-0.4352,-0.4378,-0.4552,0,0,-0.4459,-0.4471,0,0,0,0,0,0,0,0,-0.1832,-0.1847,-0.275,-0.2758,-0.2766,-0.3373,-0.3382,-0.339,-0.3686,-0.3685,-0.3685,-0.3685,-0.4333,-0.4354,-0.4375,0,0,0,0,0,0,0,0,0,0,0,0,0,0,0,-0.2751,-0.2757,0,-0.3374,-0.3381,-0.3389,-0.3686,-0.3685,-0.3685,-0.3685,-0.4339,-0.4356,-0.4374,0,0,0,0,0,0,0,0,0,0,0,0,0,0,0,0,0,0,0,0,0,0,0,0,0,0,0,0,0,0,0,0,0,0,0,0,0,0,0,0,0,0,0,0,0,0,0,0,0,0,0,0,0,0,0,0,0,0,0,0,0,0,0,0,0,0,0,0,0]}]]]